Flag Weather past 2 weeks in Surgut, Russia

Now
-13 °F

Passing clouds.


Feels Like: -40 °F
Forecast: -20 / -6 °F
Wind: 22 mph from North

Location: Surgut Airport

Current Time: Nov 26, 2014 at 10:34:33 PM

Latest Report: Nov 26, 2014 at 10:00 PM


Visibility: 4 mi

Pressure: 29.77 "Hg

Humidity: 69%

Dew point: -20 °F

Location of SurgutLocation

Historic Weather in Surgut — Graph

°F

Surgut temperature yesterday

Maximum temperature yesterday: 23 °F (at 8:00 PM)
Minimum temperature yesterday: 16 °F (at 12:00 AM)
Average temperature yesterday: 18 °F

Past Weeks' High & Low Weather Summary

 TemperatureHumidityPressure
High34 °F (Nov 13, 5:00 AM)100% (Nov 12, 11:00 PM)30.30 "Hg (Nov 12, 11:00 PM)
Low-27 °F (Nov 23, 5:00 AM)61% (Nov 21, 7:00 PM)29.36 "Hg (Nov 25, 5:30 PM)
Average9 °F84%29.80 "Hg
* Reported Nov 11 9:00 PM — Nov 26 9:30 PM, Surgut, Weather by CustomWeather, © 2014

Note: Actual official high and low records may vary slightly from our data, if they occured in-between our weather recording intervals... More about our weather records

Advertising

Surgut weather history for previous 24 hours

 ConditionsComfort  
Time TempWeatherWind HumidityBarometerVisibility
9:30 PM
Nov 26
-11 °FPassing clouds.10 mph70%29.74 "Hg4 mi
9:00 PM-9 °FPassing clouds.10 mph70%29.71 "Hg4 mi
8:30 PM-8 °FLight snow. Mostly cloudy.10 mph77%29.71 "Hg4 mi
8:00 PM-6 °FLight snow. Mostly cloudy.10 mph77%29.68 "Hg4 mi
7:30 PM-4 °FLight snow. Mostly cloudy.15 mph77%29.65 "Hg4 mi
7:00 PM1 °FLight snow. Mostly cloudy.13 mph78%29.62 "Hg3 mi
6:30 PM1 °FLight snow. Mostly cloudy.10 mph85%29.59 "Hg4 mi
6:00 PM3 °FMostly cloudy.10 mph78%29.56 "Hg4 mi
5:30 PM3 °FPassing clouds.8 mph85%29.56 "Hg4 mi
5:00 PM3 °FPassing clouds.8 mph85%29.53 "Hg4 mi
4:30 PM5 °FPassing clouds.8 mph78%29.53 "Hg4 mi
4:00 PM5 °FPartly sunny.8 mph85%29.50 "Hg4 mi
3:30 PM7 °FScattered clouds.8 mph85%29.50 "Hg4 mi
3:00 PM7 °FScattered clouds.8 mph92%29.47 "Hg4 mi
2:30 PM9 °FPassing clouds.6 mph85%29.47 "Hg4 mi
2:00 PM10 °FScattered clouds.8 mph85%29.45 "Hg4 mi
1:30 PM10 °FScattered clouds.6 mph92%29.45 "Hg4 mi
1:00 PM12 °FPassing clouds.8 mph92%29.45 "Hg4 mi
12:30 PM12 °FPassing clouds.6 mph92%29.45 "Hg4 mi
12:00 PM10 °FPassing clouds.6 mph85%29.42 "Hg4 mi
11:30 AM9 °FPassing clouds.6 mph85%29.42 "Hg4 mi
11:00 AM9 °FSunny.6 mph85%29.42 "Hg4 mi
10:30 AM9 °FSunny.6 mph85%29.42 "Hg4 mi
10:00 AM7 °FSunny.6 mph92%29.42 "Hg4 mi
9:30 AM5 °FPassing clouds.8 mph92%29.42 "Hg4 mi
9:00 AM7 °FPassing clouds.10 mph92%29.42 "Hg4 mi
8:30 AM7 °FClear.10 mph92%29.42 "Hg4 mi
8:00 AM10 °FClear.8 mph85%29.42 "Hg4 mi
7:30 AM12 °FClear.10 mph79%29.42 "Hg4 mi
7:00 AM16 °FPassing clouds.8 mph73%29.42 "Hg4 mi
6:30 AM18 °FMostly cloudy.10 mph73%29.42 "Hg4 mi
6:00 AM18 °FMostly cloudy.8 mph73%29.42 "Hg4 mi
5:30 AM18 °FMostly cloudy.8 mph73%29.42 "Hg4 mi
5:00 AM18 °FMostly cloudy.8 mph73%29.42 "Hg4 mi
4:30 AM18 °FMostly cloudy.10 mph73%29.42 "Hg4 mi
4:00 AM18 °FMostly cloudy.15 mph73%29.42 "Hg4 mi
3:30 AM18 °FMostly cloudy.13 mph73%29.42 "Hg4 mi
3:00 AM19 °FMostly cloudy.15 mph73%29.42 "Hg4 mi
2:30 AM19 °FMostly cloudy.20 mph73%29.42 "Hg4 mi
2:00 AM19 °FMostly cloudy.20 mph73%29.42 "Hg4 mi
1:30 AM19 °FMostly cloudy.20 mph79%29.42 "Hg4 mi
1:00 AM19 °FMostly cloudy.20 mph73%29.42 "Hg4 mi
12:30 AM19 °FMostly cloudy.20 mph79%29.42 "Hg1 mi
12:00 AM19 °FMostly cloudy.20 mph79%29.42 "Hg1 mi
11:30 PM
Nov 25
19 °FLight snow. Mostly cloudy.20 mph79%29.39 "Hg4 mi
11:00 PM19 °FMostly cloudy.20 mph79%29.39 "Hg4 mi
10:30 PM19 °FMostly cloudy.20 mph79%29.39 "Hg4 mi
10:00 PM19 °FMostly cloudy.20 mph79%29.39 "Hg4 mi
Weather by CustomWeather, © 2014

See weather overviewHow to use our weather pages